Change the Weather History Date:

Sunday, January 26, 2014

  Actual Average Record
Temperature  
Mean Temperature 32 °F -  
Max Temperature 35 °F - - ()
Min Temperature 30 °F - - ()
Degree Days  
Heating Degree Days 32    
Moisture  
Dew Point 25 °F    
Average Humidity 74    
Maximum Humidity 80    
Minimum Humidity 65    
Precipitation  
Precipitation 0.00 in - - ()
Sea Level Pressure  
Sea Level Pressure 29.89 in    
Wind  
Wind Speed 14 mph (East)    
Max Wind Speed 22 mph    
Max Gust Speed 30 mph    
Visibility 10 miles    
Events      
T = Trace of Precipitation, MM = Missing Value Source: NWS Daily Summary

Daily Weather History Graph

Daily Weather History Graph

Search for Another Location

Airport or City:

Trip Planner

Search our weather history database for the weather conditions in past years. The results will help you decide how hot, cold, wet, or windy it might be!

Date:

Astronomy

Jan. 26, 2014 Rise Set
Actual Time 10:37 AM AKST 4:39 PM AKST
Civil Twilight 9:31 AM AKST 5:45 PM AKST
Nautical Twilight 8:27 AM AKST 6:50 PM AKST
Astronomical Twilight 7:27 AM AKST 7:49 PM AKST
Moon 6:44 AM AKST (1/26) 12:18 PM AKST (1/26)
Length of Visible Light 8h 13m
Length of Day
6h 01m
Waning Crescent, 22% of the Moon is Illuminated
Jan 26
Waning Crescent
Jan 30
New
Feb 6
First Quarter
Feb 14
Full
Feb 22
Last Quarter

Hourly Weather History & Observations

Time (AKST) Temp. Windchill Dew Point Humidity Pressure Visibility Wind Dir Wind Speed Gust Speed Precip Events Conditions
12:16 AM 33.8 °F 24.8 °F 26.6 °F 75% 29.92 in 10.0 mi East 12.7 mph 18.4 mph N/A   Clear
12:36 AM 32.0 °F 22.1 °F 24.8 °F 75% 29.91 in 10.0 mi East 13.8 mph 23.0 mph N/A   Clear
12:56 AM 32.0 °F 20.8 °F 24.8 °F 75% 29.90 in 10.0 mi East 17.3 mph 23.0 mph N/A   Clear
1:16 AM 32.0 °F 20.8 °F 24.8 °F 75% 29.89 in 10.0 mi ENE 17.3 mph 23.0 mph N/A   Clear
1:36 AM 32.0 °F 19.8 °F 24.8 °F 75% 29.88 in 10.0 mi East 20.7 mph 25.3 mph N/A   Clear
1:56 AM 32.0 °F 20.5 °F 24.8 °F 75% 29.87 in 10.0 mi ENE 18.4 mph 25.3 mph N/A   Clear
2:16 AM 32.0 °F 19.8 °F 24.8 °F 75% 29.86 in 10.0 mi East 20.7 mph 26.5 mph N/A   Clear
2:36 AM 32.0 °F 19.5 °F 24.8 °F 75% 29.86 in 10.0 mi East 21.9 mph 29.9 mph N/A   Clear
2:56 AM 30.2 °F 17.8 °F 24.8 °F 80% 29.85 in 10.0 mi East 19.6 mph 23.0 mph N/A   Clear
3:16 AM 30.2 °F 20.2 °F 24.8 °F 80% 29.85 in 10.0 mi East 12.7 mph 21.9 mph N/A   Clear
3:36 AM 30.2 °F 18.9 °F 24.8 °F 80% 29.85 in 10.0 mi East 16.1 mph 24.2 mph N/A   Clear
3:56 AM 30.2 °F 18.5 °F 24.8 °F 80% 29.85 in 10.0 mi ENE 17.3 mph - N/A   Clear
4:16 AM 30.2 °F 18.9 °F 24.8 °F 80% 29.83 in 10.0 mi East 16.1 mph 24.2 mph N/A   Clear
4:36 AM 32.0 °F 21.2 °F 24.8 °F 75% 29.83 in 10.0 mi ENE 16.1 mph 21.9 mph N/A   Clear
4:56 AM 32.0 °F 20.8 °F 24.8 °F 75% 29.84 in 10.0 mi East 17.3 mph 23.0 mph N/A   Clear
5:16 AM 32.0 °F 21.2 °F 24.8 °F 75% 29.83 in 10.0 mi East 16.1 mph 23.0 mph N/A   Clear
5:36 AM 32.0 °F 21.6 °F 26.6 °F 80% 29.83 in 10.0 mi East 15.0 mph 23.0 mph N/A   Clear
5:56 AM 32.0 °F 21.2 °F 24.8 °F 75% 29.82 in 10.0 mi East 16.1 mph - N/A   Clear
6:16 AM 32.0 °F 22.5 °F 26.6 °F 80% 29.84 in 10.0 mi East 12.7 mph - N/A   Clear
6:36 AM 30.2 °F 19.8 °F 24.8 °F 80% 29.82 in 10.0 mi East 13.8 mph 19.6 mph N/A   Clear
6:56 AM 32.0 °F 23.0 °F 26.6 °F 80% 29.83 in 10.0 mi East 11.5 mph 18.4 mph N/A   Clear
7:16 AM 30.2 °F 21.9 °F 24.8 °F 80% 29.85 in 10.0 mi East 9.2 mph - N/A   Clear
7:36 AM 30.2 °F 21.9 °F 24.8 °F 80% 29.82 in 10.0 mi NE 9.2 mph - N/A   Clear
7:56 AM 30.2 °F 21.3 °F 24.8 °F 80% 29.84 in 10.0 mi ENE 10.4 mph - N/A   Clear
8:16 AM 32.0 °F 21.6 °F 24.8 °F 75% 29.83 in 10.0 mi ENE 15.0 mph 20.7 mph N/A   Clear
8:36 AM 33.8 °F 23.9 °F 24.8 °F 70% 29.83 in 10.0 mi East 15.0 mph 21.9 mph N/A   Clear
8:56 AM 33.8 °F 23.9 °F 26.6 °F 75% 29.83 in 10.0 mi East 15.0 mph 25.3 mph N/A   Clear
9:16 AM 33.8 °F 22.5 °F 24.8 °F 70% 29.83 in 10.0 mi East 19.6 mph 24.2 mph N/A   Clear
9:36 AM 33.8 °F 23.2 °F 24.8 °F 70% 29.83 in 10.0 mi East 17.3 mph 27.6 mph N/A   Clear
9:56 AM 33.8 °F 24.3 °F 24.8 °F 70% 29.84 in 10.0 mi East 13.8 mph 24.2 mph N/A   Clear
10:16 AM 33.8 °F 23.5 °F 24.8 °F 70% 29.84 in 10.0 mi East 16.1 mph 20.7 mph N/A   Clear
10:36 AM 33.8 °F 23.9 °F 24.8 °F 70% 29.85 in 10.0 mi East 15.0 mph 19.6 mph N/A   Clear
10:56 AM 33.8 °F 23.9 °F 24.8 °F 70% 29.86 in 10.0 mi East 15.0 mph 19.6 mph N/A   Clear
11:16 AM 33.8 °F 24.3 °F 24.8 °F 70% 29.86 in 10.0 mi East 13.8 mph 19.6 mph N/A   Clear
11:36 AM 33.8 °F 24.8 °F 24.8 °F 70% 29.87 in 10.0 mi East 12.7 mph 18.4 mph N/A   Clear
11:56 AM 33.8 °F 25.3 °F 24.8 °F 70% 29.88 in 10.0 mi East 11.5 mph - N/A   Clear
12:16 PM 33.8 °F 25.3 °F 24.8 °F 70% 29.89 in 10.0 mi East 11.5 mph 19.6 mph N/A   Clear
12:36 PM 33.8 °F 25.3 °F 24.8 °F 70% 29.90 in 10.0 mi East 11.5 mph - N/A   Partly Cloudy
12:56 PM 35.6 °F 26.6 °F 24.8 °F 65% 29.90 in 10.0 mi East 13.8 mph - N/A   Clear
1:16 PM 35.6 °F 25.5 °F 24.8 °F 65% 29.90 in 10.0 mi East 17.3 mph 21.9 mph N/A   Clear
1:36 PM 33.8 °F 23.5 °F 24.8 °F 70% 29.90 in 10.0 mi East 16.1 mph 24.2 mph N/A   Clear
1:56 PM 33.8 °F 24.3 °F 24.8 °F 70% 29.91 in 10.0 mi East 13.8 mph 21.9 mph N/A   Clear
2:16 PM 33.8 °F 24.8 °F 24.8 °F 70% 29.92 in 10.0 mi East 12.7 mph 21.9 mph N/A   Clear
2:36 PM 33.8 °F 24.3 °F 24.8 °F 70% 29.91 in 10.0 mi East 13.8 mph 19.6 mph N/A   Clear
2:56 PM 33.8 °F 24.8 °F 24.8 °F 70% 29.90 in 10.0 mi East 12.7 mph 18.4 mph N/A   Clear
3:16 PM 33.8 °F 25.3 °F 24.8 °F 70% 29.90 in 10.0 mi East 11.5 mph - N/A   Clear
3:36 PM 33.8 °F 24.3 °F 24.8 °F 70% 29.90 in 10.0 mi East 13.8 mph 21.9 mph N/A   Clear
3:56 PM 33.8 °F 25.3 °F 24.8 °F 70% 29.91 in 10.0 mi East 11.5 mph - N/A   Clear
4:16 PM 33.8 °F 24.8 °F 24.8 °F 70% 29.91 in 10.0 mi East 12.7 mph - N/A   Clear
4:36 PM 33.8 °F 25.8 °F 24.8 °F 70% 29.92 in 10.0 mi East 10.4 mph - N/A   Clear
4:56 PM 33.8 °F 25.8 °F 24.8 °F 70% 29.92 in 10.0 mi East 10.4 mph - N/A   Clear
5:16 PM 33.8 °F 24.8 °F 24.8 °F 70% 29.92 in 10.0 mi East 12.7 mph - N/A   Clear
5:36 PM 33.8 °F 24.3 °F 24.8 °F 70% 29.92 in 10.0 mi East 13.8 mph - N/A   Clear
5:56 PM 33.8 °F 26.4 °F 24.8 °F 70% 29.93 in 10.0 mi ENE 9.2 mph - N/A   Clear
6:16 PM 33.8 °F 27.0 °F 24.8 °F 70% 29.93 in 10.0 mi East 8.1 mph - N/A   Clear
6:36 PM 33.8 °F 27.0 °F 24.8 °F 70% 29.93 in 10.0 mi ENE 8.1 mph - N/A   Clear
6:56 PM 33.8 °F 26.4 °F 24.8 °F 70% 29.93 in 10.0 mi ENE 9.2 mph - N/A   Clear
7:16 PM 32.0 °F 25.6 °F 24.8 °F 75% 29.94 in 10.0 mi ENE 6.9 mph - N/A   Clear
7:36 PM 32.0 °F 24.2 °F 24.8 °F 75% 29.94 in 10.0 mi East 9.2 mph - N/A   Clear
7:56 PM 33.8 °F 27.7 °F 24.8 °F 70% 29.95 in 10.0 mi East 6.9 mph - N/A   Clear
8:16 PM 33.8 °F 27.7 °F 24.8 °F 70% 29.95 in 10.0 mi East 6.9 mph - N/A   Clear
8:36 PM 32.0 °F 28.7 °F 24.8 °F 75% 29.96 in 10.0 mi East 3.5 mph - N/A   Clear
8:56 PM 32.0 °F 24.8 °F 24.8 °F 75% 29.96 in 10.0 mi ENE 8.1 mph - N/A   Clear
9:16 PM 32.0 °F 24.2 °F 24.8 °F 75% 29.96 in 10.0 mi ENE 9.2 mph - N/A   Clear
9:36 PM 30.2 °F 22.6 °F 24.8 °F 80% 29.96 in 10.0 mi East 8.1 mph - N/A   Clear
9:56 PM 30.2 °F - 24.8 °F 80% 29.97 in 10.0 mi Calm Calm - N/A   Clear
10:16 PM 30.2 °F 24.3 °F 24.8 °F 80% 29.97 in 10.0 mi East 5.8 mph - N/A   Clear
10:36 PM 30.2 °F 26.7 °F 23.0 °F 75% 29.97 in 10.0 mi East 3.5 mph - N/A   Clear
10:56 PM 30.2 °F 23.4 °F 23.0 °F 75% 29.96 in 10.0 mi ENE 6.9 mph - N/A   Clear
11:16 PM 30.2 °F 22.6 °F 24.8 °F 80% 29.96 in 10.0 mi East 8.1 mph - N/A   Clear
11:36 PM 30.2 °F 23.4 °F 23.0 °F 75% 29.96 in 10.0 mi East 6.9 mph - N/A   Clear
11:56 PM 30.2 °F 21.9 °F 23.0 °F 75% 29.95 in 10.0 mi ENE 9.2 mph - N/A   Clear